OneWeb SL0385

operational
NORAD ID: 49311 Int'l Des: 2021-090 Owner: ONEWEBN Country: UK Constellation: oneweb
LEOCIRCULARPOLARONEWEB_TYPE

Über OneWeb SL0385

Beschreibung wird geladen...

Live-Position

3D-Globus wird geladen...

Nächste Überflüge

Höhenverlauf

Altitude vs Time

uPlot chart will show altitude changes over time

Zweizeiliger Elementsatz

1 49311U 21090AJ 25260.71637969 -.00000195 00000-0 -51232-3 0 9996
2 49311 87.9263 328.7678 0001945 94.8769 265.2586 13.20771495193835
Epoch: 17. Sept. 2025 • Age: 16 hours

Aktueller Status

Höhe 1194.2 km
Geschwindigkeit 7.26 km/s
Subsatellitenpunkt -31.33°S, 20.31°E
Startdatum 14. Okt. 2021
Alter 3.9 years
Typ internet

Technische Details

Klassifizierung Payload
Masse 148.00 kg
Trockenmasse 140.00 kg
Gesamtmasse 148.00 kg
Länge 1.30 m
Durchmesser 1.00 m
Spannweite 5.00 m
Form Trapezoid+2 pan
Hersteller ONEWUS
Bus-Typ ARROW
Phasenstatus In Orbit
Besitzer/Staat ONEWEBN/UK

Große Konstellationen

Loading constellations...